This is the latest recevied weather packets stored in our database for station/object N3SBK. If no packets are shown the sender has not sent any weather packets the latest 10 day(s).
| Time | Temp. | Humidity | Pressure | Rain* | Wind** | Luminosity | Snow |
|---|---|---|---|---|---|---|---|
| 1777941987 | 18.33° C | 54% | 999.6 hPa | 0 mm | - | 0 W/m² | - |
| 1777941683 | 18.89° C | 53% | 999.8 hPa | 0 mm | - | 0 W/m² | - |
| 1777941381 | 18.89° C | 52% | 999.6 hPa | 0 mm | - | 0 W/m² | - |
| 1777941078 | 18.89° C | 52% | 999.8 hPa | 0 mm | - | 0 W/m² | - |
| 1777940774 | 18.89° C | 51% | 999.5 hPa | 0 mm | - | 0 W/m² | - |
| 1777940472 | 19.44° C | 51% | 999.6 hPa | 0 mm | - | 1 W/m² | - |
| 1777940169 | 19.44° C | 51% | 999.5 hPa | 0 mm | - | 1 W/m² | - |
| 1777939867 | 19.44° C | 52% | 999.3 hPa | 0 mm | - | 2 W/m² | - |
| 1777939563 | 19.44° C | 51% | 999.5 hPa | 0 mm | - | 2 W/m² | - |
| 1777939261 | 19.44° C | 51% | 999.9 hPa | 0 mm | - | 2 W/m² | - |
| 1777938958 | 19.44° C | 51% | 999.5 hPa | 0 mm | - | 5 W/m² | - |
| 1777938654 | 19.44° C | 51% | 999.6 hPa | 0 mm | - | 7 W/m² | - |
| 1777938351 | 19.44° C | 50% | 999.5 hPa | 0 mm | - | 12 W/m² | - |
| 1777938048 | 19.44° C | 50% | 999.4 hPa | 0 mm | - | 8 W/m² | - |
| 1777937744 | 20° C | 50% | 999.5 hPa | 0 mm | - | 11 W/m² | - |
| 1777937441 | 20° C | 50% | 999.3 hPa | 0 mm | - | 18 W/m² | - |
| 1777937138 | 20° C | 49% | 999.4 hPa | 0 mm | - | 24 W/m² | - |
| 1777936836 | 20° C | 49% | 999.3 hPa | 0 mm | - | 30 W/m² | - |
| 1777936532 | 20° C | 50% | 999.4 hPa | 0 mm | - | 35 W/m² | - |
| 1777936228 | 20° C | 49% | 999.3 hPa | 0 mm | - | 26 W/m² | - |
| 1777935924 | 20° C | 49% | 999.5 hPa | 0 mm | - | 21 W/m² | - |
| 1777935624 | 20° C | 49% | 999.3 hPa | 0 mm | - | 18 W/m² | - |
| 1777935320 | 20° C | 48% | 999.4 hPa | 0 mm | - | 13 W/m² | - |
| 1777935017 | 20° C | 48% | 999.6 hPa | 0 mm | - | 28 W/m² | - |
| 1777934714 | 20° C | 48% | 999.3 hPa | 0 mm | - | 36 W/m² | - |
* Rain latest hour (hover to see other rain measurements)
** Current wind speed in m/s (hover to see current wind gust speed)